Location: Newark
(49.8969°N, 3.3422°E)
Time: 07:30:51
(UTC+00:00)

Envisat - Pass Details

Date: 06 December 2019
Orbit: 764 x 766 km, 98.1° (Epoch: 28 January)

Event Time Altitude Azimuth Distance (km) Brightness Sun altitude
Rises 16:46:10 0° 141° (SE) 3,224 6.1 -9.2°
Reaches altitude 10° 16:48:34 10° 134° (SE) 2,302 5.3 -9.6°
Maximum altitude 16:53:16 40° 66° (ENE) 1,131 3.4 -10.3°
Drops below altitude 10° 16:57:59 10° 359° (N) 2,317 5.3 -11.0°
Sets 17:00:25 0° 352° (N) 3,248 6.1 -11.3°
